Time,TemperatureF,DewpointF,PressureIn,WindDirection,WindDirectionDegrees,WindSpeedMPH,WindSpeedGustMPH,Humidity,HourlyPrecipIn,Conditions,Clouds,dailyrainin,SoftwareType,DateUTC
2013-10-19 00:01:00,43.9,42.4,29.87,WSW,243,4.0,4.9,94,0.00,,,0.00,WUHU216HW,2013-10-19 04:01:00,
2013-10-19 00:02:00,43.9,42.4,29.87,WSW,239,2.7,4.0,94,0.00,,,0.00,WUHU216HW,2013-10-19 04:02:00,
2013-10-19 00:07:00,44.1,42.6,29.87,SW,214,2.4,2.7,94,0.00,,,0.00,WUHU216HW,2013-10-19 04:07:00,
2013-10-19 00:10:00,44.1,42.6,29.86,SW,219,2.8,4.7,94,0.00,,,0.00,WUHU216HW,2013-10-19 04:10:00,
2013-10-19 00:12:00,44.1,42.6,29.86,WSW,246,1.5,2.5,94,0.00,,,0.00,WUHU216HW,2013-10-19 04:12:00,
2013-10-19 00:14:00,44.1,42.6,29.86,SW,229,2.8,4.0,94,0.00,,,0.00,WUHU216HW,2013-10-19 04:14:00,
2013-10-19 00:19:00,44.1,42.6,29.86,SW,235,2.4,2.9,94,0.00,,,0.00,WUHU216HW,2013-10-19 04:19:00,
2013-10-19 00:24:00,44.1,42.6,29.86,WSW,237,4.3,6.3,94,0.00,,,0.00,WUHU216HW,2013-10-19 04:24:00,
2013-10-19 00:29:00,44.1,42.6,29.86,SW,235,1.9,2.2,94,0.00,,,0.00,WUHU216HW,2013-10-19 04:29:00,
2013-10-19 00:34:00,44.1,42.6,29.86,WSW,237,3.0,4.0,94,0.00,,,0.00,WUHU216HW,2013-10-19 04:34:00,
2013-10-19 00:39:00,44.1,42.6,29.86,WSW,242,1.2,1.3,94,0.00,,,0.00,WUHU216HW,2013-10-19 04:39:00,
2013-10-19 00:44:00,44.3,42.8,29.86,SW,225,1.7,1.8,94,0.00,,,0.00,WUHU216HW,2013-10-19 04:44:00,
2013-10-19 00:49:00,44.1,42.6,29.86,SW,235,3.3,4.0,94,0.00,,,0.00,WUHU216HW,2013-10-19 04:49:00,
2013-10-19 00:54:00,43.9,42.4,29.85,SW,234,1.9,2.5,94,0.00,,,0.00,WUHU216HW,2013-10-19 04:54:00,
2013-10-19 00:59:00,43.9,42.4,29.85,SW,234,4.6,6.3,94,0.00,,,0.00,WUHU216HW,2013-10-19 04:59:00,
2013-10-19 01:04:00,43.9,42.4,29.86,SW,232,3.0,4.3,94,0.00,,,0.00,WUHU216HW,2013-10-19 05:04:00,
2013-10-19 01:09:00,43.9,42.4,29.85,WSW,237,2.2,2.7,94,0.00,,,0.00,WUHU216HW,2013-10-19 05:09:00,
2013-10-19 01:14:00,43.9,42.4,29.84,SW,228,2.7,3.4,94,0.00,,,0.00,WUHU216HW,2013-10-19 05:14:00,
2013-10-19 01:19:00,43.9,42.4,29.85,SW,230,1.7,2.5,94,0.00,,,0.00,WUHU216HW,2013-10-19 05:19:00,
2013-10-19 01:24:00,43.9,42.4,29.85,SW,236,1.5,2.5,94,0.00,,,0.00,WUHU216HW,2013-10-19 05:24:00,
2013-10-19 01:30:00,43.7,42.2,29.84,WSW,241,1.3,1.6,94,0.00,,,0.00,WUHU216HW,2013-10-19 05:30:00,
2013-10-19 01:35:00,43.6,42.1,29.84,SSW,198,1.9,3.1,94,0.00,,,0.00,WUHU216HW,2013-10-19 05:35:00,
2013-10-19 01:40:00,43.6,42.1,29.84,SW,229,3.3,4.7,94,0.00,,,0.00,WUHU216HW,2013-10-19 05:40:00,
2013-10-19 01:45:00,43.2,41.7,29.84,SW,215,2.5,3.4,94,0.00,,,0.00,WUHU216HW,2013-10-19 05:45:00,
2013-10-19 01:50:00,43.0,41.5,29.84,SSW,211,1.7,2.5,94,0.00,,,0.00,WUHU216HW,2013-10-19 05:50:00,
2013-10-19 01:55:00,42.8,41.6,29.84,WSW,240,1.2,2.0,96,0.00,,,0.00,WUHU216HW,2013-10-19 05:55:00,
2013-10-19 02:00:00,42.8,41.6,29.84,SSW,209,1.1,2.0,96,0.00,,,0.00,WUHU216HW,2013-10-19 06:00:00,
2013-10-19 02:05:00,42.8,41.6,29.84,WSW,237,3.4,3.8,96,0.00,,,0.00,WUHU216HW,2013-10-19 06:05:00,
2013-10-19 02:10:00,42.8,41.6,29.84,WSW,239,2.4,4.5,96,0.00,,,0.00,WUHU216HW,2013-10-19 06:10:00,
2013-10-19 02:15:00,42.8,41.6,29.84,WSW,248,0.9,1.1,96,0.00,,,0.00,WUHU216HW,2013-10-19 06:15:00,
2013-10-19 02:20:00,43.0,41.8,29.84,WSW,237,1.4,1.8,96,0.00,,,0.00,WUHU216HW,2013-10-19 06:20:00,
2013-10-19 02:25:00,43.0,41.8,29.84,SW,215,0.6,1.3,96,0.00,,,0.00,WUHU216HW,2013-10-19 06:25:00,
2013-10-19 02:30:00,43.0,41.8,29.84,WSW,239,1.9,2.5,96,0.00,,,0.00,WUHU216HW,2013-10-19 06:30:00,
2013-10-19 02:35:00,43.2,42.0,29.83,WSW,242,2.3,2.7,96,0.00,,,0.00,WUHU216HW,2013-10-19 06:35:00,
2013-10-19 02:40:00,43.2,42.0,29.83,SW,219,2.4,2.5,96,0.00,,,0.00,WUHU216HW,2013-10-19 06:40:00,
2013-10-19 02:45:00,43.2,42.0,29.83,WSW,238,1.8,2.2,96,0.00,,,0.00,WUHU216HW,2013-10-19 06:45:00,
2013-10-19 02:50:00,43.2,42.0,29.83,South,174,1.1,2.2,96,0.00,,,0.00,WUHU216HW,2013-10-19 06:50:00,
2013-10-19 02:55:00,43.4,42.2,29.83,WSW,244,2.6,3.4,96,0.00,,,0.00,WUHU216HW,2013-10-19 06:55:00,
2013-10-19 03:00:00,43.4,42.2,29.83,SW,228,3.1,4.0,96,0.00,,,0.00,WUHU216HW,2013-10-19 07:00:00,
2013-10-19 03:05:00,43.4,42.2,29.83,SW,215,2.2,3.4,96,0.00,,,0.00,WUHU216HW,2013-10-19 07:05:00,
2013-10-19 03:10:00,43.4,42.5,29.83,West,260,2.1,5.8,97,0.00,,,0.00,WUHU216HW,2013-10-19 07:10:00,
2013-10-19 03:15:00,43.6,42.7,29.83,WSW,252,2.9,3.4,97,0.00,,,0.00,WUHU216HW,2013-10-19 07:15:00,
2013-10-19 03:20:00,43.4,42.2,29.82,SW,227,1.5,2.2,96,0.00,,,0.00,WUHU216HW,2013-10-19 07:20:00,
2013-10-19 03:25:00,43.6,42.4,29.83,SW,227,2.7,3.4,96,0.00,,,0.00,WUHU216HW,2013-10-19 07:25:00,
2013-10-19 03:30:00,43.6,42.4,29.83,SW,214,1.9,2.7,96,0.00,,,0.00,WUHU216HW,2013-10-19 07:30:00,
2013-10-19 03:35:00,43.4,42.2,29.83,SW,226,2.7,5.4,96,0.00,,,0.00,WUHU216HW,2013-10-19 07:35:00,
2013-10-19 03:40:00,43.4,42.2,29.83,WSW,239,2.4,3.4,96,0.00,,,0.00,WUHU216HW,2013-10-19 07:40:00,
2013-10-19 03:45:00,43.4,42.2,29.82,SW,227,1.5,2.2,96,0.00,,,0.00,WUHU216HW,2013-10-19 07:45:00,
2013-10-19 03:50:00,43.2,42.0,29.82,SSW,209,2.3,2.5,96,0.00,,,0.00,WUHU216HW,2013-10-19 07:50:00,
2013-10-19 03:55:00,43.2,42.0,29.83,SSW,212,1.3,2.5,96,0.00,,,0.00,WUHU216HW,2013-10-19 07:55:00,
2013-10-19 04:00:00,43.2,42.0,29.82,WSW,248,2.3,3.4,96,0.00,,,0.00,WUHU216HW,2013-10-19 08:00:00,
2013-10-19 04:05:00,43.2,42.0,29.82,SW,221,3.5,5.1,96,0.00,,,0.00,WUHU216HW,2013-10-19 08:05:00,
2013-10-19 04:10:00,43.2,42.0,29.82,SW,222,2.0,3.1,96,0.00,,,0.00,WUHU216HW,2013-10-19 08:10:00,
2013-10-19 04:16:00,43.2,42.3,29.83,SSW,193,4.0,4.7,97,0.00,,,0.00,WUHU216HW,2013-10-19 08:16:00,
2013-10-19 04:21:00,43.2,42.3,29.82,SW,229,1.1,1.6,97,0.00,,,0.00,WUHU216HW,2013-10-19 08:21:00,
2013-10-19 04:26:00,43.2,42.3,29.82,SSW,206,3.3,3.8,97,0.00,,,0.00,WUHU216HW,2013-10-19 08:26:00,
2013-10-19 04:31:00,43.2,42.3,29.82,SW,225,1.9,2.5,97,0.00,,,0.00,WUHU216HW,2013-10-19 08:31:00,
2013-10-19 04:36:00,43.2,42.3,29.82,SW,228,1.2,1.8,97,0.00,,,0.00,WUHU216HW,2013-10-19 08:36:00,
2013-10-19 04:41:00,43.2,42.3,29.82,SW,219,1.3,2.0,97,0.00,,,0.00,WUHU216HW,2013-10-19 08:41:00,
2013-10-19 04:46:00,43.4,42.5,29.82,WSW,237,0.9,1.1,97,0.00,,,0.00,WUHU216HW,2013-10-19 08:46:00,
2013-10-19 04:51:00,43.4,42.5,29.81,SSW,206,3.0,3.6,97,0.00,,,0.00,WUHU216HW,2013-10-19 08:51:00,
2013-10-19 04:56:00,43.4,42.5,29.81,SSW,193,0.9,1.6,97,0.00,,,0.00,WUHU216HW,2013-10-19 08:56:00,
2013-10-19 05:01:00,43.4,42.5,29.81,South,189,0.4,0.7,97,0.00,,,0.00,WUHU216HW,2013-10-19 09:01:00,
2013-10-19 05:06:00,43.4,42.5,29.81,SW,226,2.2,2.7,97,0.00,,,0.00,WUHU216HW,2013-10-19 09:06:00,
2013-10-19 05:11:00,43.4,42.5,29.81,South,181,0.5,0.7,97,0.00,,,0.00,WUHU216HW,2013-10-19 09:11:00,
2013-10-19 05:16:00,43.4,42.2,29.80,SSW,199,1.1,1.8,96,0.00,,,0.00,WUHU216HW,2013-10-19 09:16:00,
2013-10-19 05:21:00,43.4,42.5,29.80,SSW,203,0.0,0.2,97,0.00,,,0.00,WUHU216HW,2013-10-19 09:21:00,
2013-10-19 05:26:00,43.4,42.5,29.80,SW,231,3.4,4.7,97,0.00,,,0.00,WUHU216HW,2013-10-19 09:26:00,
2013-10-19 05:31:00,43.2,42.3,29.79,SW,214,1.1,1.3,97,0.00,,,0.00,WUHU216HW,2013-10-19 09:31:00,
2013-10-19 05:36:00,43.2,42.0,29.80,SSW,208,2.5,3.1,96,0.00,,,0.00,WUHU216HW,2013-10-19 09:36:00,
2013-10-19 05:41:00,43.2,42.0,29.79,WSW,237,1.6,2.0,96,0.00,,,0.00,WUHU216HW,2013-10-19 09:41:00,
2013-10-19 05:46:00,43.2,42.0,29.79,South,180,0.2,0.4,96,0.00,,,0.00,WUHU216HW,2013-10-19 09:46:00,
2013-10-19 05:51:00,43.2,42.0,29.79,South,176,0.9,1.6,96,0.00,,,0.00,WUHU216HW,2013-10-19 09:51:00,
2013-10-19 05:56:00,43.2,42.0,29.80,WSW,239,0.3,0.4,96,0.00,,,0.00,WUHU216HW,2013-10-19 09:56:00,
2013-10-19 06:01:00,43.2,42.0,29.79,SW,225,0.9,1.1,96,0.00,,,0.00,WUHU216HW,2013-10-19 10:01:00,
2013-10-19 06:06:00,43.0,41.8,29.79,West,270,0.2,0.4,96,0.00,,,0.00,WUHU216HW,2013-10-19 10:06:00,
2013-10-19 06:11:00,43.0,41.8,29.79,SSW,207,0.4,0.9,96,0.01,,,0.01,WUHU216HW,2013-10-19 10:11:00,
2013-10-19 06:16:00,43.0,41.8,29.80,SW,219,0.8,2.5,96,0.01,,,0.01,WUHU216HW,2013-10-19 10:16:00,
2013-10-19 06:21:00,43.0,42.1,29.80,SW,232,0.6,1.3,97,0.01,,,0.01,WUHU216HW,2013-10-19 10:21:00,
2013-10-19 06:26:00,43.0,42.1,29.80,West,270,0.5,1.1,97,0.01,,,0.01,WUHU216HW,2013-10-19 10:26:00,
2013-10-19 06:31:00,43.0,42.1,29.79,SW,225,1.5,2.2,97,0.01,,,0.01,WUHU216HW,2013-10-19 10:31:00,
2013-10-19 06:36:00,43.0,42.1,29.79,East,94,0.9,1.1,97,0.01,,,0.01,WUHU216HW,2013-10-19 10:36:00,
2013-10-19 06:41:00,43.0,42.1,29.79,SW,232,0.6,1.1,97,0.02,,,0.02,WUHU216HW,2013-10-19 10:41:00,
2013-10-19 06:46:00,42.8,41.9,29.79,South,180,0.1,1.8,97,0.02,,,0.02,WUHU216HW,2013-10-19 10:46:00,
2013-10-19 06:51:00,42.8,41.9,29.79,SW,215,2.0,2.9,97,0.02,,,0.02,WUHU216HW,2013-10-19 10:51:00,
2013-10-19 06:56:00,42.8,41.9,29.79,SSW,205,0.6,0.9,97,0.02,,,0.02,WUHU216HW,2013-10-19 10:56:00,
2013-10-19 07:01:00,42.8,41.9,29.79,SW,225,0.6,1.6,97,0.02,,,0.02,WUHU216HW,2013-10-19 11:01:00,
2013-10-19 07:06:00,42.8,41.9,29.79,West,270,0.4,0.9,97,0.02,,,0.02,WUHU216HW,2013-10-19 11:06:00,
2013-10-19 07:12:00,42.8,41.9,29.79,SW,221,1.1,1.6,97,0.02,,,0.03,WUHU216HW,2013-10-19 11:12:00,
2013-10-19 07:17:00,42.8,41.9,29.79,SW,222,2.9,3.4,97,0.02,,,0.03,WUHU216HW,2013-10-19 11:17:00,
2013-10-19 07:22:00,42.8,41.9,29.79,West,266,1.6,2.0,97,0.02,,,0.03,WUHU216HW,2013-10-19 11:22:00,
2013-10-19 07:27:00,42.8,41.9,29.79,West,262,1.0,1.1,97,0.02,,,0.03,WUHU216HW,2013-10-19 11:27:00,
2013-10-19 07:32:00,42.8,41.9,29.79,SW,234,2.0,2.5,97,0.03,,,0.04,WUHU216HW,2013-10-19 11:32:00,
2013-10-19 07:37:00,42.8,41.9,29.79,WSW,237,1.0,2.0,97,0.03,,,0.04,WUHU216HW,2013-10-19 11:37:00,
2013-10-19 07:42:00,42.8,41.9,29.78,SW,227,0.6,0.9,97,0.04,,,0.06,WUHU216HW,2013-10-19 11:42:00,
2013-10-19 07:47:00,42.8,42.2,29.79,SW,229,2.5,3.4,98,0.04,,,0.06,WUHU216HW,2013-10-19 11:47:00,
2013-10-19 07:52:00,42.8,42.2,29.79,South,177,1.8,2.7,98,0.04,,,0.06,WUHU216HW,2013-10-19 11:52:00,
2013-10-19 07:57:00,42.8,42.2,29.78,WSW,242,1.1,1.1,98,0.04,,,0.06,WUHU216HW,2013-10-19 11:57:00,
2013-10-19 08:02:00,42.8,42.2,29.78,SW,233,2.7,3.4,98,0.04,,,0.06,WUHU216HW,2013-10-19 12:02:00,
2013-10-19 08:07:00,42.7,42.1,29.78,South,182,1.1,1.1,98,0.06,,,0.08,WUHU216HW,2013-10-19 12:07:00,
2013-10-19 08:12:00,42.8,42.2,29.78,South,172,0.9,1.1,98,0.05,,,0.08,WUHU216HW,2013-10-19 12:12:00,
2013-10-19 08:17:00,42.7,42.1,29.78,West,267,1.6,2.5,98,0.05,,,0.08,WUHU216HW,2013-10-19 12:17:00,
2013-10-19 08:22:00,42.7,42.1,29.79,WSW,243,2.2,3.1,98,0.05,,,0.08,WUHU216HW,2013-10-19 12:22:00,
2013-10-19 08:27:00,42.7,42.1,29.79,West,277,1.6,1.8,98,0.05,,,0.08,WUHU216HW,2013-10-19 12:27:00,
2013-10-19 08:32:00,42.7,42.1,29.79,SW,220,3.3,4.0,98,0.04,,,0.08,WUHU216HW,2013-10-19 12:32:00,
2013-10-19 08:37:00,42.8,42.2,29.79,SW,217,3.7,4.0,98,0.02,,,0.08,WUHU216HW,2013-10-19 12:37:00,
2013-10-19 08:42:00,42.8,42.2,29.79,SW,234,3.1,5.6,98,0.04,,,0.10,WUHU216HW,2013-10-19 12:42:00,
2013-10-19 08:47:00,42.8,42.2,29.79,SW,220,3.3,4.3,98,0.04,,,0.10,WUHU216HW,2013-10-19 12:47:00,
2013-10-19 08:52:00,42.8,42.2,29.79,SW,228,2.6,4.7,98,0.04,,,0.10,WUHU216HW,2013-10-19 12:52:00,
2013-10-19 08:57:00,42.8,42.2,29.79,WSW,240,2.2,3.1,98,0.04,,,0.10,WUHU216HW,2013-10-19 12:57:00,
2013-10-19 09:02:00,42.8,42.2,29.79,WSW,243,1.5,1.8,98,0.04,,,0.10,WUHU216HW,2013-10-19 13:02:00,
2013-10-19 09:07:00,43.0,42.4,29.79,SSW,213,2.0,4.7,98,0.02,,,0.10,WUHU216HW,2013-10-19 13:07:00,
2013-10-19 09:12:00,43.0,42.4,29.79,WSW,244,1.5,3.4,98,0.03,,,0.11,WUHU216HW,2013-10-19 13:12:00,
2013-10-19 09:17:00,43.0,42.4,29.79,SSW,203,4.5,4.5,98,0.03,,,0.11,WUHU216HW,2013-10-19 13:17:00,
2013-10-19 09:22:00,43.2,42.6,29.79,WSW,237,4.3,5.4,98,0.03,,,0.11,WUHU216HW,2013-10-19 13:22:00,
2013-10-19 09:27:00,43.4,43.1,29.79,SW,225,3.7,4.0,99,0.03,,,0.11,WUHU216HW,2013-10-19 13:27:00,
2013-10-19 09:32:00,43.6,43.3,29.79,SSE,167,3.6,6.9,99,0.05,,,0.13,WUHU216HW,2013-10-19 13:32:00,
2013-10-19 09:37:00,43.6,43.3,29.79,SW,214,2.8,3.4,99,0.05,,,0.13,WUHU216HW,2013-10-19 13:37:00,
2013-10-19 09:42:00,43.6,43.3,29.79,SW,230,2.0,5.1,99,0.03,,,0.13,WUHU216HW,2013-10-19 13:42:00,
2013-10-19 09:47:00,43.6,43.3,29.78,SW,217,0.9,1.8,99,0.03,,,0.13,WUHU216HW,2013-10-19 13:47:00,
2013-10-19 09:52:00,43.6,43.3,29.79,WSW,249,3.3,5.1,99,0.03,,,0.13,WUHU216HW,2013-10-19 13:52:00,
2013-10-19 09:57:00,43.6,43.3,29.78,WSW,244,1.9,2.9,99,0.03,,,0.13,WUHU216HW,2013-10-19 13:57:00,
2013-10-19 10:02:00,43.7,43.4,29.78,West,267,3.4,3.6,99,0.03,,,0.13,WUHU216HW,2013-10-19 14:02:00,
2013-10-19 10:08:00,43.7,43.4,29.78,West,263,2.2,2.5,99,0.02,,,0.13,WUHU216HW,2013-10-19 14:08:00,
2013-10-19 10:13:00,43.7,43.4,29.78,SW,222,3.7,5.8,99,0.04,,,0.15,WUHU216HW,2013-10-19 14:13:00,
2013-10-19 10:18:00,43.9,43.6,29.77,WSW,239,4.1,5.4,99,0.04,,,0.15,WUHU216HW,2013-10-19 14:18:00,
2013-10-19 10:23:00,44.1,43.8,29.77,WSW,256,3.4,3.6,99,0.04,,,0.15,WUHU216HW,2013-10-19 14:23:00,
2013-10-19 10:28:00,44.1,43.8,29.77,WSW,252,2.1,2.9,99,0.02,,,0.15,WUHU216HW,2013-10-19 14:28:00,
2013-10-19 10:33:00,44.3,44.0,29.77,WSW,250,3.6,4.5,99,0.02,,,0.15,WUHU216HW,2013-10-19 14:33:00,
2013-10-19 10:38:00,44.5,44.2,29.77,SSW,203,3.7,6.5,99,0.02,,,0.15,WUHU216HW,2013-10-19 14:38:00,
2013-10-19 10:43:00,44.8,44.5,29.77,WNW,284,2.0,2.2,99,0.02,,,0.15,WUHU216HW,2013-10-19 14:43:00,
2013-10-19 10:48:00,45.0,44.4,29.76,WSW,248,1.7,2.7,98,0.02,,,0.15,WUHU216HW,2013-10-19 14:48:00,
2013-10-19 10:53:00,45.4,44.8,29.76,WSW,248,1.8,2.9,98,0.02,,,0.15,WUHU216HW,2013-10-19 14:53:00,
2013-10-19 10:58:00,45.7,45.1,29.76,WSW,244,2.2,2.5,98,0.02,,,0.15,WUHU216HW,2013-10-19 14:58:00,
2013-10-19 11:03:00,45.9,45.3,29.76,West,275,3.8,4.9,98,0.02,,,0.15,WUHU216HW,2013-10-19 15:03:00,
2013-10-19 11:08:00,46.1,45.5,29.76,West,268,3.3,4.5,98,0.02,,,0.15,WUHU216HW,2013-10-19 15:08:00,
2013-10-19 11:13:00,45.9,45.3,29.76,West,260,2.7,3.4,98,0.00,,,0.15,WUHU216HW,2013-10-19 15:13:00,
2013-10-19 11:18:00,45.5,44.9,29.76,WSW,238,4.9,6.3,98,0.00,,,0.15,WUHU216HW,2013-10-19 15:18:00,
2013-10-19 11:23:00,45.5,44.9,29.76,SSW,204,3.6,6.3,98,0.00,,,0.15,WUHU216HW,2013-10-19 15:23:00,
2013-10-19 11:28:00,45.4,44.8,29.76,WSW,256,3.3,4.3,98,0.00,,,0.15,WUHU216HW,2013-10-19 15:28:00,
2013-10-19 11:33:00,45.4,44.8,29.76,West,260,3.2,5.1,98,0.00,,,0.15,WUHU216HW,2013-10-19 15:33:00,
2013-10-19 11:38:00,45.2,44.6,29.76,West,266,1.6,2.2,98,0.00,,,0.15,WUHU216HW,2013-10-19 15:38:00,
2013-10-19 11:43:00,45.5,44.9,29.76,WNW,291,2.8,3.1,98,0.00,,,0.15,WUHU216HW,2013-10-19 15:43:00,
2013-10-19 11:48:00,45.4,44.8,29.76,West,267,4.0,4.9,98,0.00,,,0.15,WUHU216HW,2013-10-19 15:48:00,
2013-10-19 11:53:00,45.5,44.9,29.76,WSW,248,0.5,1.1,98,0.00,,,0.15,WUHU216HW,2013-10-19 15:53:00,
2013-10-19 11:59:00,45.2,44.6,29.76,West,264,1.9,2.2,98,0.00,,,0.15,WUHU216HW,2013-10-19 15:59:00,
2013-10-19 12:04:00,45.4,44.8,29.76,West,273,4.4,5.4,98,0.00,,,0.15,WUHU216HW,2013-10-19 16:04:00,
2013-10-19 12:09:00,45.4,44.5,29.76,WSW,252,1.9,2.5,97,0.00,,,0.15,WUHU216HW,2013-10-19 16:09:00,
2013-10-19 12:14:00,45.5,44.6,29.76,West,268,1.7,2.7,97,0.00,,,0.15,WUHU216HW,2013-10-19 16:14:00,
2013-10-19 12:19:00,45.7,44.8,29.76,WSW,241,2.5,3.4,97,0.00,,,0.15,WUHU216HW,2013-10-19 16:19:00,
2013-10-19 12:24:00,45.5,44.6,29.75,SW,230,3.1,3.8,97,0.00,,,0.15,WUHU216HW,2013-10-19 16:24:00,
2013-10-19 12:29:00,45.7,44.8,29.75,West,266,1.9,2.7,97,0.00,,,0.15,WUHU216HW,2013-10-19 16:29:00,
2013-10-19 12:34:00,45.9,45.0,29.75,SW,225,4.5,5.1,97,0.00,,,0.15,WUHU216HW,2013-10-19 16:34:00,
2013-10-19 12:39:00,46.3,45.4,29.75,West,267,2.0,3.4,97,0.00,,,0.15,WUHU216HW,2013-10-19 16:39:00,
2013-10-19 12:44:00,46.3,45.1,29.74,West,274,4.7,4.9,96,0.00,,,0.15,WUHU216HW,2013-10-19 16:44:00,
2013-10-19 12:49:00,46.4,45.5,29.74,West,273,2.3,2.7,97,0.00,,,0.15,WUHU216HW,2013-10-19 16:49:00,
2013-10-19 12:54:00,46.4,45.2,29.74,West,261,2.4,4.3,96,0.00,,,0.15,WUHU216HW,2013-10-19 16:54:00,
2013-10-19 12:59:00,46.4,45.2,29.74,WSW,249,1.3,3.4,96,0.00,,,0.15,WUHU216HW,2013-10-19 16:59:00,
2013-10-19 13:04:00,47.0,45.8,29.74,West,262,2.9,4.9,96,0.00,,,0.15,WUHU216HW,2013-10-19 17:04:00,
2013-10-19 13:09:00,47.2,46.0,29.74,SSW,210,1.7,1.8,96,0.00,,,0.15,WUHU216HW,2013-10-19 17:09:00,
2013-10-19 13:14:00,47.3,46.1,29.74,SW,218,2.5,2.5,96,0.00,,,0.15,WUHU216HW,2013-10-19 17:14:00,
2013-10-19 13:19:00,47.9,46.6,29.74,WSW,244,2.9,4.0,96,0.00,,,0.15,WUHU216HW,2013-10-19 17:19:00,
2013-10-19 13:24:00,48.1,46.8,29.74,SW,228,4.6,4.7,96,0.00,,,0.15,WUHU216HW,2013-10-19 17:24:00,
2013-10-19 13:29:00,48.1,46.8,29.74,WSW,239,2.3,4.0,96,0.00,,,0.15,WUHU216HW,2013-10-19 17:29:00,
2013-10-19 13:34:00,48.1,46.5,29.74,WSW,239,4.8,7.6,94,0.00,,,0.15,WUHU216HW,2013-10-19 17:34:00,
2013-10-19 13:39:00,47.9,46.3,29.74,WSW,246,5.9,7.2,94,0.00,,,0.15,WUHU216HW,2013-10-19 17:39:00,
2013-10-19 13:44:00,48.2,46.6,29.74,West,266,4.5,5.8,94,0.00,,,0.15,WUHU216HW,2013-10-19 17:44:00,
2013-10-19 13:49:00,47.9,45.7,29.73,West,259,3.5,5.6,92,0.00,,,0.15,WUHU216HW,2013-10-19 17:49:00,
2013-10-19 13:54:00,47.9,46.0,29.73,West,268,3.1,3.8,93,0.00,,,0.15,WUHU216HW,2013-10-19 17:54:00,
2013-10-19 13:59:00,48.6,46.7,29.73,WSW,242,5.8,6.7,93,0.00,,,0.15,WUHU216HW,2013-10-19 17:59:00,
2013-10-19 14:04:00,49.3,47.1,29.73,WNW,283,2.3,3.4,92,0.00,,,0.15,WUHU216HW,2013-10-19 18:04:00,
2013-10-19 14:09:00,49.9,47.3,29.73,WSW,252,3.9,6.3,91,0.00,,,0.15,WUHU216HW,2013-10-19 18:09:00,
2013-10-19 14:14:00,49.7,46.8,29.72,West,266,5.4,6.9,90,0.00,,,0.15,WUHU216HW,2013-10-19 18:14:00,
2013-10-19 14:19:00,49.7,46.8,29.72,West,262,3.8,4.7,90,0.00,,,0.15,WUHU216HW,2013-10-19 18:19:00,
2013-10-19 14:25:00,50.0,46.8,29.72,SW,232,8.0,9.8,89,0.00,,,0.15,WUHU216HW,2013-10-19 18:25:00,
2013-10-19 14:30:00,50.2,47.0,29.72,NW,326,5.6,6.9,89,0.00,,,0.15,WUHU216HW,2013-10-19 18:30:00,
2013-10-19 14:35:00,50.6,47.1,29.71,WNW,294,5.8,8.3,88,0.00,,,0.15,WUHU216HW,2013-10-19 18:35:00,
2013-10-19 14:40:00,51.3,47.1,29.72,WNW,293,6.7,8.5,85,0.00,,,0.15,WUHU216HW,2013-10-19 18:40:00,
2013-10-19 14:45:00,51.8,47.6,29.72,NW,317,5.4,7.6,85,0.00,,,0.15,WUHU216HW,2013-10-19 18:45:00,
2013-10-19 14:50:00,52.2,47.3,29.72,WNW,283,1.7,4.0,83,0.00,,,0.15,WUHU216HW,2013-10-19 18:50:00,
2013-10-19 14:55:00,52.6,47.7,29.72,SW,220,4.1,4.7,83,0.00,,,0.15,WUHU216HW,2013-10-19 18:55:00,
2013-10-19 15:00:00,52.6,46.9,29.71,SW,234,5.0,5.4,81,0.00,,,0.15,WUHU216HW,2013-10-19 19:00:00,
2013-10-19 15:05:00,52.6,46.9,29.72,WSW,245,3.9,7.4,81,0.00,,,0.15,WUHU216HW,2013-10-19 19:05:00,
2013-10-19 15:10:00,53.1,47.4,29.71,WSW,240,6.4,8.3,81,0.00,,,0.15,WUHU216HW,2013-10-19 19:10:00,
2013-10-19 15:15:00,53.1,47.4,29.71,SW,234,5.7,6.7,81,0.00,,,0.15,WUHU216HW,2013-10-19 19:15:00,
2013-10-19 15:20:00,53.1,47.4,29.72,WNW,284,4.9,6.3,81,0.00,,,0.15,WUHU216HW,2013-10-19 19:20:00,
2013-10-19 15:25:00,52.4,46.4,29.72,WSW,252,5.9,8.7,80,0.00,,,0.15,WUHU216HW,2013-10-19 19:25:00,
2013-10-19 15:26:00,52.2,46.6,29.72,West,271,5.0,6.9,81,0.00,,,0.15,WUHU216HW,2013-10-19 19:26:00,
2013-10-19 15:31:00,51.5,45.5,29.72,NW,314,5.5,8.3,80,0.00,,,0.15,WUHU216HW,2013-10-19 19:31:00,
2013-10-19 15:36:00,51.1,45.1,29.72,WSW,239,7.7,9.8,80,0.00,,,0.15,WUHU216HW,2013-10-19 19:36:00,
2013-10-19 15:41:00,51.1,44.8,29.72,WNW,289,5.2,8.3,79,0.00,,,0.15,WUHU216HW,2013-10-19 19:41:00,
2013-10-19 15:46:00,51.7,45.0,29.72,NW,312,8.4,9.2,78,0.00,,,0.15,WUHU216HW,2013-10-19 19:46:00,
2013-10-19 15:51:00,51.3,44.6,29.72,West,276,3.2,3.8,78,0.00,,,0.15,WUHU216HW,2013-10-19 19:51:00,
2013-10-19 15:56:00,51.3,44.9,29.72,West,265,1.6,2.5,79,0.00,,,0.15,WUHU216HW,2013-10-19 19:56:00,
2013-10-19 16:01:00,50.9,44.2,29.72,NW,310,5.6,7.6,78,0.00,,,0.15,WUHU216HW,2013-10-19 20:01:00,
2013-10-19 16:06:00,50.4,44.1,29.72,WSW,249,4.9,6.9,79,0.00,,,0.15,WUHU216HW,2013-10-19 20:06:00,
2013-10-19 16:11:00,50.4,44.1,29.72,West,266,7.3,9.8,79,0.00,,,0.15,WUHU216HW,2013-10-19 20:11:00,
2013-10-19 16:16:00,50.6,44.3,29.72,WSW,246,5.4,6.7,79,0.00,,,0.15,WUHU216HW,2013-10-19 20:16:00,
2013-10-19 16:21:00,50.6,43.9,29.72,West,261,2.9,3.8,78,0.00,,,0.15,WUHU216HW,2013-10-19 20:21:00,
2013-10-19 16:26:00,50.4,43.7,29.73,WNW,295,2.0,3.4,78,0.00,,,0.15,WUHU216HW,2013-10-19 20:26:00,
2013-10-19 16:32:00,50.4,43.7,29.73,WSW,237,6.1,6.9,78,0.00,,,0.15,WUHU216HW,2013-10-19 20:32:00,
2013-10-19 16:37:00,50.0,42.9,29.73,West,272,4.0,7.2,76,0.00,,,0.15,WUHU216HW,2013-10-19 20:37:00,
2013-10-19 16:42:00,49.9,42.8,29.73,WSW,250,5.0,5.4,76,0.00,,,0.15,WUHU216HW,2013-10-19 20:42:00,
2013-10-19 16:47:00,49.9,42.8,29.72,WSW,243,5.2,8.9,76,0.00,,,0.15,WUHU216HW,2013-10-19 20:47:00,
2013-10-19 16:52:00,50.0,43.3,29.72,West,264,2.9,3.4,78,0.00,,,0.15,WUHU216HW,2013-10-19 20:52:00,
2013-10-19 16:57:00,51.1,43.6,29.72,WNW,291,6.5,7.8,75,0.00,,,0.15,WUHU216HW,2013-10-19 20:57:00,
2013-10-19 17:02:00,51.7,44.2,29.73,WNW,289,2.2,2.5,75,0.00,,,0.15,WUHU216HW,2013-10-19 21:02:00,
2013-10-19 17:07:00,51.3,43.1,29.72,West,274,6.2,8.5,73,0.00,,,0.15,WUHU216HW,2013-10-19 21:07:00,
2013-10-19 17:12:00,50.8,42.6,29.73,SW,233,7.8,8.5,73,0.00,,,0.15,WUHU216HW,2013-10-19 21:12:00,
2013-10-19 17:17:00,50.0,41.4,29.73,West,262,8.8,9.8,72,0.00,,,0.15,WUHU216HW,2013-10-19 21:17:00,
2013-10-19 17:22:00,49.9,41.3,29.73,West,277,4.8,7.6,72,0.00,,,0.15,WUHU216HW,2013-10-19 21:22:00,
2013-10-19 17:27:00,50.0,41.4,29.73,SW,220,4.7,8.5,72,0.00,,,0.15,WUHU216HW,2013-10-19 21:27:00,
2013-10-19 17:32:00,50.8,42.2,29.73,SW,229,5.8,7.6,72,0.00,,,0.15,WUHU216HW,2013-10-19 21:32:00,
2013-10-19 17:37:00,51.1,42.9,29.73,West,261,2.8,3.4,73,0.00,,,0.15,WUHU216HW,2013-10-19 21:37:00,
2013-10-19 17:42:00,50.8,42.2,29.73,SW,234,3.7,7.2,72,0.00,,,0.15,WUHU216HW,2013-10-19 21:42:00,
2013-10-19 17:47:00,49.9,41.3,29.74,WSW,246,4.6,6.7,72,0.00,,,0.15,WUHU216HW,2013-10-19 21:47:00,
2013-10-19 17:52:00,49.1,40.5,29.74,WSW,254,4.0,5.6,72,0.00,,,0.15,WUHU216HW,2013-10-19 21:52:00,
2013-10-19 17:57:00,48.6,39.6,29.74,WSW,245,3.7,5.1,71,0.00,,,0.15,WUHU216HW,2013-10-19 21:57:00,
2013-10-19 18:02:00,48.1,39.6,29.74,WNW,283,6.3,7.6,72,0.00,,,0.15,WUHU216HW,2013-10-19 22:02:00,
2013-10-19 18:07:00,47.9,39.8,29.74,SW,220,1.7,2.0,73,0.00,,,0.15,WUHU216HW,2013-10-19 22:07:00,
2013-10-19 18:12:00,47.7,40.0,29.74,WSW,242,2.0,4.0,74,0.00,,,0.15,WUHU216HW,2013-10-19 22:12:00,
2013-10-19 18:17:00,47.5,39.8,29.74,West,262,5.3,7.4,74,0.00,,,0.15,WUHU216HW,2013-10-19 22:17:00,
2013-10-19 18:22:00,47.3,39.6,29.74,WSW,240,3.5,4.0,74,0.00,,,0.15,WUHU216HW,2013-10-19 22:22:00,
2013-10-19 18:27:00,47.2,39.5,29.74,WSW,241,2.8,4.9,74,0.00,,,0.15,WUHU216HW,2013-10-19 22:27:00,
2013-10-19 18:32:00,46.8,39.1,29.74,WSW,256,3.9,4.9,74,0.00,,,0.15,WUHU216HW,2013-10-19 22:32:00,
2013-10-19 18:37:00,46.4,38.7,29.74,WSW,242,1.6,2.5,74,0.00,,,0.15,WUHU216HW,2013-10-19 22:37:00,
2013-10-19 18:42:00,45.9,38.2,29.74,SW,230,2.0,2.5,74,0.00,,,0.15,WUHU216HW,2013-10-19 22:42:00,
2013-10-19 18:47:00,45.5,38.2,29.74,WSW,244,1.6,2.5,75,0.00,,,0.15,WUHU216HW,2013-10-19 22:47:00,
2013-10-19 18:52:00,45.0,37.7,29.75,SW,230,1.3,2.0,75,0.00,,,0.15,WUHU216HW,2013-10-19 22:52:00,
2013-10-19 18:57:00,44.5,37.6,29.75,WSW,240,1.7,2.2,76,0.00,,,0.15,WUHU216HW,2013-10-19 22:57:00,
2013-10-19 19:02:00,44.1,37.2,29.75,WSW,239,1.2,1.6,76,0.00,,,0.15,WUHU216HW,2013-10-19 23:02:00,
2013-10-19 19:08:00,43.6,37.1,29.75,SW,214,0.7,0.7,78,0.00,,,0.15,WUHU216HW,2013-10-19 23:08:00,
2013-10-19 19:13:00,43.0,36.9,29.75,WSW,244,0.3,1.1,79,0.00,,,0.15,WUHU216HW,2013-10-19 23:13:00,
2013-10-19 19:18:00,42.7,36.6,29.76,WSW,245,0.5,0.7,79,0.00,,,0.15,WUHU216HW,2013-10-19 23:18:00,
2013-10-19 19:23:00,42.1,36.0,29.76,SW,225,1.4,2.5,79,0.00,,,0.15,WUHU216HW,2013-10-19 23:23:00,
2013-10-19 19:28:00,41.6,35.8,29.76,SW,230,0.8,1.1,80,0.00,,,0.15,WUHU216HW,2013-10-19 23:28:00,
2013-10-19 19:33:00,41.4,36.0,29.76,SW,233,1.8,3.4,81,0.00,,,0.15,WUHU216HW,2013-10-19 23:33:00,
2013-10-19 19:38:00,41.4,36.3,29.76,WSW,240,0.9,1.3,82,0.00,,,0.15,WUHU216HW,2013-10-19 23:38:00,
2013-10-19 19:43:00,41.4,36.3,29.77,SW,230,1.1,1.1,82,0.00,,,0.15,WUHU216HW,2013-10-19 23:43:00,
2013-10-19 19:48:00,41.8,37.1,29.77,SW,221,4.2,4.9,83,0.00,,,0.15,WUHU216HW,2013-10-19 23:48:00,
2013-10-19 19:53:00,42.5,38.4,29.77,WSW,246,10.6,11.2,85,0.00,,,0.15,WUHU216HW,2013-10-19 23:53:00,
2013-10-19 19:58:00,43.2,39.1,29.77,SW,231,5.8,7.8,85,0.00,,,0.15,WUHU216HW,2013-10-19 23:58:00,
2013-10-19 20:03:00,43.6,39.2,29.78,WSW,244,3.0,6.3,84,0.00,,,0.15,WUHU216HW,2013-10-20 00:03:00,
2013-10-19 20:08:00,43.7,39.3,29.78,WSW,237,1.8,2.5,84,0.00,,,0.15,WUHU216HW,2013-10-20 00:08:00,
2013-10-19 20:13:00,43.9,39.5,29.78,SW,234,5.7,6.0,84,0.00,,,0.15,WUHU216HW,2013-10-20 00:13:00,
2013-10-19 20:18:00,43.9,39.5,29.78,West,259,1.7,2.2,84,0.00,,,0.15,WUHU216HW,2013-10-20 00:18:00,
2013-10-19 20:23:00,43.9,39.5,29.78,WNW,282,5.3,6.5,84,0.00,,,0.15,WUHU216HW,2013-10-20 00:23:00,
2013-10-19 20:28:00,43.9,39.5,29.78,WSW,245,4.1,4.7,84,0.00,,,0.15,WUHU216HW,2013-10-20 00:28:00,
2013-10-19 20:33:00,43.7,39.3,29.78,SW,234,2.3,2.9,84,0.00,,,0.15,WUHU216HW,2013-10-20 00:33:00,
2013-10-19 20:38:00,43.7,39.3,29.78,SW,224,3.5,5.4,84,0.00,,,0.15,WUHU216HW,2013-10-20 00:38:00,
2013-10-19 20:43:00,43.6,39.2,29.78,WSW,239,3.1,4.0,84,0.00,,,0.15,WUHU216HW,2013-10-20 00:43:00,
2013-10-19 20:48:00,43.6,39.2,29.79,WSW,252,2.3,2.5,84,0.00,,,0.15,WUHU216HW,2013-10-20 00:48:00,
2013-10-19 20:53:00,43.6,39.2,29.79,SW,226,2.0,2.5,84,0.00,,,0.15,WUHU216HW,2013-10-20 00:53:00,
2013-10-19 20:58:00,43.4,39.0,29.79,West,260,2.8,3.4,84,0.00,,,0.15,WUHU216HW,2013-10-20 00:58:00,
2013-10-19 21:03:00,43.4,39.3,29.80,WSW,239,2.5,3.1,85,0.00,,,0.15,WUHU216HW,2013-10-20 01:03:00,
2013-10-19 21:08:00,43.4,39.6,29.80,WSW,240,4.4,5.6,87,0.00,,,0.15,WUHU216HW,2013-10-20 01:08:00,
2013-10-19 21:14:00,43.2,39.4,29.80,WNW,296,5.4,7.6,87,0.02,,,0.17,WUHU216HW,2013-10-20 01:14:00,
2013-10-19 21:19:00,43.0,39.6,29.80,West,273,4.2,4.7,88,0.03,,,0.18,WUHU216HW,2013-10-20 01:19:00,
2013-10-19 21:24:00,42.8,39.7,29.80,West,281,2.6,3.1,89,0.03,,,0.18,WUHU216HW,2013-10-20 01:24:00,
2013-10-19 21:29:00,42.5,39.7,29.80,SW,227,3.0,3.6,90,0.03,,,0.18,WUHU216HW,2013-10-20 01:29:00,
2013-10-19 21:34:00,42.3,39.5,29.81,WSW,254,1.4,2.5,90,0.03,,,0.18,WUHU216HW,2013-10-20 01:34:00,
2013-10-19 21:39:00,42.1,39.3,29.81,West,263,1.8,2.7,90,0.04,,,0.19,WUHU216HW,2013-10-20 01:39:00,
2013-10-19 21:44:00,42.1,39.6,29.80,West,266,1.5,2.0,91,0.04,,,0.19,WUHU216HW,2013-10-20 01:44:00,
2013-10-19 21:49:00,42.1,39.6,29.80,SW,233,0.3,1.3,91,0.04,,,0.19,WUHU216HW,2013-10-20 01:49:00,
2013-10-19 21:54:00,41.8,39.3,29.80,WNW,292,2.5,3.4,91,0.04,,,0.19,WUHU216HW,2013-10-20 01:54:00,
2013-10-19 21:59:00,41.8,39.3,29.80,West,269,1.5,2.5,91,0.04,,,0.19,WUHU216HW,2013-10-20 01:59:00,
2013-10-19 22:04:00,41.4,38.9,29.80,SW,214,0.2,0.4,91,0.04,,,0.19,WUHU216HW,2013-10-20 02:04:00,
2013-10-19 22:09:00,41.4,38.9,29.80,SSW,203,0.0,0.2,91,0.04,,,0.19,WUHU216HW,2013-10-20 02:09:00,
2013-10-19 22:14:00,41.2,38.7,29.80,WSW,248,0.7,1.1,91,0.02,,,0.19,WUHU216HW,2013-10-20 02:14:00,
2013-10-19 22:19:00,40.7,38.2,29.80,North,0,0.0,0.0,91,0.01,,,0.19,WUHU216HW,2013-10-20 02:19:00,
2013-10-19 22:24:00,40.3,38.2,29.81,WSW,248,0.1,0.2,92,0.01,,,0.19,WUHU216HW,2013-10-20 02:24:00,
2013-10-19 22:29:00,40.1,38.0,29.81,SW,221,0.8,1.1,92,0.01,,,0.19,WUHU216HW,2013-10-20 02:29:00,
2013-10-19 22:34:00,40.1,38.3,29.80,North,0,0.0,0.0,93,0.01,,,0.19,WUHU216HW,2013-10-20 02:34:00,
2013-10-19 22:39:00,40.0,37.9,29.80,SW,225,0.2,0.4,92,0.00,,,0.19,WUHU216HW,2013-10-20 02:39:00,
2013-10-19 22:44:00,40.0,37.9,29.80,South,190,0.4,1.1,92,0.00,,,0.19,WUHU216HW,2013-10-20 02:44:00,
2013-10-19 22:49:00,40.1,38.3,29.80,South,179,1.2,1.3,93,0.00,,,0.19,WUHU216HW,2013-10-20 02:49:00,
2013-10-19 22:54:00,40.1,38.3,29.80,SSW,203,0.4,0.4,93,0.00,,,0.19,WUHU216HW,2013-10-20 02:54:00,
2013-10-19 22:59:00,40.3,38.5,29.80,SSW,206,0.8,1.1,93,0.00,,,0.19,WUHU216HW,2013-10-20 02:59:00,
2013-10-19 23:04:00,40.3,38.8,29.79,North,0,0.0,0.0,94,0.00,,,0.19,WUHU216HW,2013-10-20 03:04:00,
2013-10-19 23:09:00,40.3,38.8,29.80,SW,236,0.5,0.9,94,0.00,,,0.19,WUHU216HW,2013-10-20 03:09:00,
2013-10-19 23:14:00,40.3,38.8,29.80,WSW,248,1.3,2.2,94,0.00,,,0.19,WUHU216HW,2013-10-20 03:14:00,
2013-10-19 23:19:00,40.3,38.8,29.80,WSW,239,1.1,1.3,94,0.00,,,0.19,WUHU216HW,2013-10-20 03:19:00,
2013-10-19 23:24:00,40.5,39.0,29.80,SW,227,1.7,1.8,94,0.00,,,0.19,WUHU216HW,2013-10-20 03:24:00,
2013-10-19 23:29:00,40.5,39.0,29.81,SW,233,0.7,1.1,94,0.00,,,0.19,WUHU216HW,2013-10-20 03:29:00,
2013-10-19 23:35:00,40.5,39.3,29.81,SW,220,2.0,2.2,96,0.00,,,0.19,WUHU216HW,2013-10-20 03:35:00,
2013-10-19 23:40:00,40.7,39.5,29.81,SW,216,2.9,4.0,96,0.00,,,0.19,WUHU216HW,2013-10-20 03:40:00,
2013-10-19 23:45:00,40.7,39.5,29.81,WSW,243,2.7,4.5,96,0.01,,,0.20,WUHU216HW,2013-10-20 03:45:00,
2013-10-19 23:50:00,40.7,39.5,29.81,SW,236,5.2,6.5,96,0.01,,,0.20,WUHU216HW,2013-10-20 03:50:00,
2013-10-19 23:55:00,40.9,39.7,29.81,SW,218,2.9,6.9,96,0.01,,,0.20,WUHU216HW,2013-10-20 03:55:00,